OPS 0856 DEB, 24959

Orbit data source: Space-Track

OPS 0856 DEB, 24959 is space debris in LEO originally from a launch on Fri, 19 Aug 1966 UTC launched from the Air Force Western Test Range (AFWTR). Debris objects in space refer to the collection of defunct objects orbiting the Earth. Examples of debris include non-operational satellites, rocket bodies, and fragments generated from explosions, collisions, or faulty payload assembly.

Loading next visibility...
Identifier
24959, 1966-077R
Orbit
LEO
Country
Flag of USUS
Related business
Manufacturer
Unknown
Mission
Spacecraft
Bus & Motor
Unknown
Mass
Unknown
Launch date (UTC)
1966-08-19 (60 years ago)
Launch vehicle
Unknown
Launch site
Air Force Western Test Range (AFWTR)
Object type
Payload
Rocket body
Debris
Shape & HBR
Unknown shape, 0.1 m
Radar Cross Section
Small (<0.1 m²)

Expand to show TLE details & history
Last TLE update: 3 weeks ago

TLE from 3 weeks ago
0 OPS 0856 DEB
1 24959U 66077R   26100.09361994  .00000996  00000-0  15633+0 0  9996
2 24959  88.0227 152.6167 1196978  54.7310 337.4379  8.96559843173089
Epoch: 2026-04-10T02:14Z
TLE epoch observation values (Epoch: 2026-04-10T02:14:48.762Z)
Latitude
26.0929°
Longitude
-78.4543°
Altitude
2,354.785 km
Speed
7.115 km/s
True Right ascension
10h 14m 19s
True Declination
25° 58' 56"
Sunlit
Object was in daylight at epoch
Visualization orbit readout
Latitude
Unknown
Longitude
Unknown
Altitude
Unknown
Speed
Unknown
Apparent Right ascension
Unknown
Apparent Declination
Unknown
Sunlit
N/A
Visualization observer readout
Local Sidereal Time
07:44:55
Azimuth
Unknown
Elevation
Unknown
Doppler factor
Unknown
Orbital elements
Apogee altitude
4,578.613 km
Perigee altitude
2,236.019 km
Semi-major axis
9,785.453 km
Eccentricity
0.1197
Inclination
88.0227°
RAAN
152.6167°
Arg. of periapsis
54.731°
True anomaly
331.34951°
Mean anomaly
337.4379°
Eccentric anomaly
334.48361°
Mean motion
2.24219 °/min
Orbital period
160.56 mins
BSTAR
0.15633
Loading maneuver chart data...
Computing Atmospheric mass density...
Loading historical data...
Loading historical data...
Loading historical data...
Loading historical data...
Loading historical data...
Loading historical data...
Loading historical data...

Documentation

Showing up to 5 results
|